W8APS Weather Reports


time (UTC)temp
F
wind
direction
speed
knots
gust
knots
rain 1hr
in
rain 24hr
in
rain mn
in
humidity
%
barometer
mb
20260506073029 46 319 1.7 4.3 0.00 0.00 0.00 66 1008.4
20260506072514 46 328 0.9 4.3 0.00 0.00 0.00 65 1008.3
20260506072019 46 330 0.9 4.3 0.00 0.00 0.00 64 1008.5
20260506071528 46 0 0.0 3.5 0.00 0.00 0.00 64 1008.5
20260506071014 47 323 0.0 3.5 0.00 0.00 0.00 63 1008.6
20260506070514 47 297 0.0 3.5 0.00 0.00 0.00 63 1008.4
20260506062514 47 0 0.0 4.3 0.00 0.00 0.00 59 1008.5
20260506062011 47 314 0.9 4.3 0.00 0.00 0.00 58 1008.6
20260506061531 47 0 0.9 4.3 0.00 0.00 0.00 58 1008.6
20260506061016 47 0 0.9 5.2 0.00 0.00 0.00 58 1008.6
20260506060514 47 266 1.7 5.2 0.00 0.00 0.00 56 1008.5
20260506051012 48 244 0.9 7.0 0.00 0.00 0.00 53 1008.5
20260506050518 48 293 0.9 7.0 0.00 0.00 0.00 53 1008.5
20260506045017 48 315 0.9 4.3 0.00 0.00 0.00 53 1008.6
20260506044530 48 283 1.7 4.3 0.00 0.00 0.00 53 1008.1
20260506044014 48 302 0.9 4.3 0.00 0.00 0.00 53 1008.1
20260506043514 49 296 0.0 4.3 0.00 0.00 0.00 53 1008.2
20260506043030 49 328 0.9 4.3 0.00 0.00 0.00 53 1008.0
20260506042515 49 286 0.9 5.2 0.00 0.00 0.00 53 1008.1
20260506042014 49 304 0.9 5.2 0.00 0.00 0.00 52 1008.1
20260506041533 49 296 1.7 4.3 0.00 0.00 0.00 52 1008.1
20260506041014 49 264 0.9 4.3 0.00 0.00 0.00 53 1008.1
20260506040514 49 0 0.9 4.3 0.00 0.00 0.00 52 1008.2
20260506040037 49 296 0.0 5.2 0.00 0.00 0.00 52 1008.1
20260506035514 49 262 1.7 5.2 0.00 0.00 0.00 52 1008.3
20260506035014 49 0 0.9 5.2 0.00 0.00 0.00 52 1008.3
20260506034530 49 257 0.9 5.2 0.00 0.00 0.00 52 1008.3
20260506034014 49 290 0.9 5.2 0.00 0.00 0.00 52 1008.2
20260506033512 49 297 0.9 3.5 0.00 0.00 0.00 51 1008.2
20260506033034 49 226 0.9 4.3 0.00 0.00 0.00 51 1008.3
20260506032516 49 265 1.7 6.1 0.00 0.00 0.00 51 1008.2
20260506032013 49 267 0.9 6.1 0.00 0.00 0.00 51 1008.4
20260506031530 49 238 0.0 3.5 0.00 0.00 0.00 51 1008.2
20260506031016 49 255 0.9 3.5 0.00 0.00 0.00 50 1008.3
20260506030513 49 255 0.0 3.5 0.00 0.00 0.00 50 1008.1
20260506030029 50 251 1.7 3.5 0.00 0.00 0.00 50 1008.1
20260506025515 50 0 0.0 2.6 0.00 0.00 0.00 49 1008.2
20260506025013 50 231 0.0 5.2 0.00 0.00 0.00 49 1008.3
20260506024531 50 0 1.7 5.2 0.00 0.00 0.00 49 1008.5
20260506024017 50 244 0.9 3.5 0.00 0.00 0.00 49 1008.5
20260506023515 50 0 0.0 3.5 0.00 0.00 0.00 49 1008.2
20260506023042 50 236 0.9 3.5 0.00 0.00 0.00 48 1008.1
20260506022514 50 0 0.0 3.5 0.00 0.00 0.00 49 1008.2
20260506022016 50 266 0.9 4.3 0.00 0.00 0.00 48 1008.3
20260506021534 50 0 0.9 4.3 0.00 0.00 0.00 48 1008.5
20260506021017 50 270 0.9 3.5 0.00 0.00 0.00 48 1008.5
20260506020515 50 224 0.9 4.3 0.00 0.00 0.00 48 1008.3
20260506020034 50 246 0.9 4.3 0.00 0.00 0.00 47 1008.2
20260506015515 50 240 0.9 3.5 0.00 0.00 0.00 47 1008.1
20260506015019 50 0 1.7 3.5 0.00 0.00 0.00 47 1008.0
20260506014533 51 272 0.9 5.2 0.00 0.00 0.00 47 1008.0
20260506014014 51 274 1.7 5.2 0.00 0.00 0.00 46 1007.9
20260506013515 51 243 0.0 3.5 0.00 0.00 0.00 47 1007.9
20260506013030 51 0 0.9 3.5 0.00 0.00 0.00 48 1007.9
20260506012514 51 263 0.9 5.2 0.00 0.00 0.00 46 1007.9
20260506012012 51 255 1.7 5.2 0.00 0.00 0.00 46 1007.9
20260506011532 51 226 0.9 3.5 0.00 0.00 0.00 46 1007.8
20260506011015 51 221 0.0 2.6 0.00 0.00 0.00 46 1007.9
20260506010515 51 236 0.9 5.2 0.00 0.00 0.00 45 1007.8
20260506010044 51 240 0.9 7.0 0.00 0.00 0.00 45 1007.8
20260506005515 52 255 2.6 7.0 0.00 0.00 0.00 45 1007.9
20260506005014 52 210 2.6 6.1 0.00 0.00 0.00 44 1007.8
20260506004530 52 0 0.9 4.3 0.00 0.00 0.00 45 1007.8
20260506004013 52 261 1.7 5.2 0.00 0.00 0.00 43 1007.8
20260506003513 52 263 0.9 6.1 0.00 0.00 0.00 43 1007.7
20260506003032 52 262 1.7 8.7 0.00 0.00 0.00 43 1007.6
20260506002512 52 247 1.7 8.7 0.00 0.00 0.00 42 1007.6
20260506002013 52 251 3.5 11.3 0.00 0.00 0.00 42 1007.6
20260506001531 52 253 4.3 11.3 0.00 0.00 0.00 42 1007.6
20260506001016 52 262 0.9 7.0 0.00 0.00 0.00 44 1007.5
20260506000515 53 264 1.7 7.0 0.00 0.00 0.00 43 1007.4
20260506000029 53 262 2.6 7.8 0.00 0.00 0.00 43 1007.4
20260505235515 53 259 2.6 7.8 0.00 0.00 0.00 43 1007.3
20260505235014 53 242 2.6 6.1 0.00 0.00 0.00 43 1007.2
20260505234554 53 0 0.9 6.1 0.00 0.00 0.00 44 1007.2
20260505234016 53 269 1.7 6.1 0.00 0.00 0.00 44 1007.2
20260505233514 53 271 1.7 6.1 0.00 0.00 0.00 45 1007.1
20260505233037 53 279 0.9 5.2 0.00 0.00 0.00 48 1007.1
20260505232513 53 246 1.7 5.2 0.00 0.00 0.00 48 1007.0
20260505232013 53 255 2.6 6.1 0.00 0.00 0.00 49 1007.0
20260505231533 53 271 0.9 6.1 0.00 0.00 0.00 52 1006.9
20260505231015 54 228 1.7 5.2 0.00 0.00 0.00 56 1007.0
20260505230515 54 229 2.6 5.2 0.00 0.00 0.00 57 1007.0
20260505230029 54 156 1.7 7.8 0.00 0.00 0.00 58 1007.1
20260505225516 54 213 1.7 7.8 0.00 0.00 0.00 56 1007.0
20260505225016 54 232 1.7 7.8 0.00 0.00 0.00 57 1007.1
20260505224533 54 227 2.6 5.2 0.00 0.00 0.00 55 1007.2
20260505224016 54 245 0.9 7.0 0.00 0.00 0.00 57 1007.1
20260505223523 54 265 1.7 7.0 0.00 0.00 0.00 53 1007.1
20260505223028 54 215 3.5 7.0 0.00 0.00 0.00 54 1007.1
20260505222518 54 0 0.9 7.0 0.00 0.00 0.00 54 1007.2
20260505222012 54 240 2.6 7.0 0.00 0.00 0.00 53 1007.2
20260505221530 54 204 3.5 7.0 0.00 0.00 0.00 54 1007.2
20260505221020 54 231 2.6 7.0 0.00 0.00 0.00 55 1007.2
20260505220515 54 202 2.6 10.4 0.00 0.00 0.00 54 1007.2
20260505220032 54 236 2.6 10.4 0.00 0.00 0.00 54 1007.3
20260505215515 54 253 3.5 7.8 0.00 0.00 0.00 54 1007.2
20260505215014 54 163 2.6 7.0 0.00 0.00 0.00 54 1007.4
20260505214557 54 224 2.6 7.0 0.00 0.00 0.00 53 1007.3
20260505214018 54 271 2.6 7.8 0.00 0.00 0.00 53 1007.2
20260505213514 54 299 1.7 9.6 0.00 0.00 0.00 53 1007.2
20260505213028 54 256 3.5 9.6 0.00 0.00 0.00 54 1007.1
20260505212518 54 240 1.7 8.7 0.00 0.00 0.00 56 1007.1
20260505212015 54 210 2.6 7.8 0.00 0.00 0.00 54 1007.1
20260505211532 54 247 1.7 11.3 0.00 0.00 0.00 56 1007.2
20260505211015 54 241 3.5 11.3 0.00 0.00 0.00 56 1007.3
20260505210514 54 219 3.5 10.4 0.00 0.00 0.00 59 1007.3
20260505210031 54 230 3.5 8.7 0.00 0.00 0.00 63 1007.3
20260505205512 54 223 3.5 7.8 0.00 0.00 0.00 63 1007.2
20260505205015 54 260 2.6 7.8 0.00 0.00 0.00 63 1007.1
20260505204531 54 224 1.7 9.6 0.00 0.00 0.00 63 1007.1
20260505204019 54 217 2.6 9.6 0.00 0.00 0.00 64 1007.0
20260505203516 54 199 1.7 9.6 0.00 0.00 0.00 64 1007.2
20260505203036 54 235 1.7 9.6 0.00 0.00 0.00 62 1007.1
20260505202515 54 233 2.6 9.6 0.00 0.00 0.00 62 1007.2
20260505202013 54 219 2.6 7.8 0.00 0.00 0.00 61 1007.1
20260505201536 54 207 1.7 7.8 0.00 0.00 0.00 61 1007.0
20260505201013 54 213 2.6 7.8 0.00 0.00 0.00 61 1007.0
20260505200516 54 157 2.6 7.0 0.00 0.00 0.00 60 1007.2
20260505200032 54 244 1.7 7.0 0.00 0.00 0.00 60 1007.1
20260505195514 54 276 2.6 8.7 0.00 0.00 0.00 61 1007.2
20260505195013 54 254 0.9 9.6 0.00 0.00 0.00 59 1007.2
20260505194538 54 240 2.6 12.2 0.00 0.00 0.00 58 1007.3
20260505194014 54 193 6.1 12.2 0.00 0.00 0.00 59 1007.4
20260505193515 54 224 3.5 11.3 0.00 0.00 0.00 60 1007.3
20260505193031 54 215 4.3 11.3 0.00 0.00 0.00 61 1007.4
20260505192514 54 220 1.7 7.8 0.00 0.00 0.00 62 1007.4
20260505192015 54 237 3.5 7.0 0.00 0.00 0.00 61 1007.5
20260505191531 55 246 0.0 7.0 0.00 0.00 0.00 61 1007.4
20260505191014 54 262 2.6 11.3 0.00 0.00 0.00 60 1007.4
20260505190515 54 267 2.6 11.3 0.00 0.00 0.00 61 1007.4
20260505190028 54 325 2.6 7.8 0.00 0.00 0.00 59 1007.4
20260505185515 55 217 1.7 7.8 0.00 0.00 0.00 60 1007.4
20260505185015 55 203 2.6 7.8 0.00 0.00 0.00 59 1007.4
20260505184531 55 323 1.7 7.8 0.00 0.00 0.00 59 1007.4
20260505184012 55 230 1.7 6.1 0.00 0.00 0.00 60 1007.3
20260505183517 55 260 0.9 10.4 0.00 0.00 0.00 60 1007.2
20260505183033 54 223 5.2 12.2 0.00 0.00 0.00 60 1007.1
20260505182519 54 269 4.3 12.2 0.00 0.00 0.00 60 1007.0
20260505182015 54 268 4.3 12.2 0.00 0.00 0.00 60 1007.0
20260505181532 54 221 3.5 15.6 0.00 0.00 0.00 63 1006.8
20260505181016 54 274 6.1 15.6 0.00 0.00 0.00 62 1006.8
20260505180515 54 232 2.6 7.8 0.00 0.00 0.00 64 1006.8
20260505180054 54 261 2.6 7.8 0.00 0.00 0.00 65 1006.8
20260505175517 53 236 2.6 7.8 0.00 0.00 0.00 68 1006.7
20260505175018 53 216 4.3 7.8 0.00 0.00 0.00 68 1006.7
20260505174550 53 221 2.6 10.4 0.00 0.00 0.00 69 1006.6
20260505174013 53 271 4.3 10.4 0.00 0.00 0.00 68 1006.6
20260505173513 53 233 4.3 10.4 0.00 0.00 0.00 68 1006.8
20260505173034 53 248 3.5 8.7 0.00 0.00 0.00 71 1006.8
20260505172514 53 229 3.5 10.4 0.00 0.00 0.00 70 1006.5
20260505172015 53 269 3.5 10.4 0.00 0.00 0.00 71 1006.6
20260505171532 53 219 4.3 10.4 0.00 0.00 0.00 71 1006.6
20260505171014 52 233 3.5 10.4 0.00 0.00 0.00 72 1006.5
20260505170513 52 229 3.5 11.3 0.00 0.00 0.00 72 1006.5
20260505170031 52 251 4.3 11.3 0.00 0.00 0.00 74 1006.6
20260505165518 52 245 2.6 6.1 0.00 0.00 0.00 75 1006.8
20260505165013 51 215 2.6 12.2 0.00 0.00 0.00 74 1006.8
20260505164530 51 198 4.3 12.2 0.00 0.00 0.00 76 1006.8
20260505164014 51 233 3.5 7.0 0.00 0.00 0.00 77 1006.8
20260505163512 51 223 0.9 3.5 0.00 0.00 0.00 79 1006.7
20260505163031 50 215 0.0 3.5 0.00 0.00 0.00 79 1006.6
20260505162515 50 216 0.9 3.5 0.00 0.00 0.00 78 1006.7
20260505162016 50 210 0.9 2.6 0.00 0.00 0.00 78 1006.8
20260505161529 50 163 0.0 1.7 0.00 0.00 0.00 78 1006.9
20260505161015 50 0 0.0 1.7 0.00 0.00 0.00 78 1006.8
20260505160514 50 250 0.0 1.7 0.00 0.00 0.00 78 1006.8
20260505153033 50 346 1.7 6.1 0.00 0.00 0.00 72 1007.0
20260505152516 51 294 1.7 5.2 0.00 0.00 0.00 72 1007.0
20260505152015 51 340 1.7 4.3 0.00 0.00 0.00 70 1006.8
20260505151534 51 300 1.7 3.5 0.00 0.00 0.00 71 1006.5
20260505151013 51 306 0.9 3.5 0.00 0.00 0.00 71 1006.4
20260505150517 51 300 0.9 2.6 0.00 0.00 0.00 71 1006.6
20260505140516 52 326 0.9 6.1 0.00 0.00 0.00 72 1005.9
20260505125015 52 344 3.5 7.8 0.00 0.00 0.00 74 1004.2
20260505124537 52 316 2.6 7.8 0.00 0.00 0.00 76 1004.2
20260505124014 52 345 3.5 7.8 0.00 0.00 0.00 76 1004.0
20260505123515 52 333 3.5 7.8 0.00 0.00 0.00 76 1003.9
20260505123031 52 358 4.3 7.8 0.00 0.00 0.00 77 1003.8
20260505122514 52 43 5.2 8.7 0.00 0.00 0.00 78 1003.7
20260505122017 52 9 3.5 8.7 0.00 0.00 0.00 78 1003.7
20260505121533 53 6 3.5 7.8 0.00 0.00 0.00 78 1003.6
20260505121014 53 17 3.5 7.8 0.00 0.00 0.00 78 1003.7
20260505120513 54 356 1.7 6.1 0.00 0.00 0.00 79 1003.7
20260505120033 55 349 2.6 8.7 0.00 0.00 0.00 80 1003.4
20260505115513 55 312 3.5 11.3 0.00 0.00 0.00 78 1003.4
20260505115016 56 347 2.6 11.3 0.00 0.00 0.00 77 1003.3
20260505114530 56 271 4.3 11.3 0.00 0.00 0.00 75 1003.2
20260505114018 56 266 2.6 9.6 0.00 0.00 0.00 76 1003.2
20260505113516 56 264 4.3 9.6 0.00 0.00 0.00 76 1002.9
20260505113029 56 259 1.7 9.6 0.00 0.00 0.00 77 1002.8
20260505112514 56 271 4.3 9.6 0.00 0.00 0.00 78 1002.7
20260505112015 56 260 0.9 7.0 0.00 0.00 0.00 79 1002.5
20260505111528 56 245 2.6 7.8 0.00 0.00 0.00 80 1002.5
20260505111013 56 264 2.6 8.7 0.00 0.00 0.00 80 1002.2
20260505110514 56 258 2.6 8.7 0.00 0.00 0.00 82 1002.2
20260505102014 56 221 5.2 10.4 0.00 0.00 0.00 83 1001.2
20260505101534 56 233 4.3 7.8 0.00 0.00 0.00 83 1001.1
20260505101013 57 220 2.6 7.8 0.00 0.00 0.00 83 1001.0
20260505100513 57 215 2.6 8.7 0.00 0.00 0.00 83 1000.8
20260505100032 57 207 3.5 10.4 0.00 0.00 0.00 83 1001.0
20260505095514 57 217 5.2 10.4 0.00 0.00 0.00 83 1001.0
20260505095016 57 228 2.6 9.6 0.00 0.00 0.00 83 1000.9
20260505094532 57 225 5.2 9.6 0.00 0.00 0.00 82 1000.9
20260505094014 58 233 3.5 11.3 0.00 0.00 0.00 82 1000.8
20260505093517 58 223 5.2 11.3 0.00 0.00 0.00 81 1000.8
20260505093035 58 222 5.2 12.2 0.00 0.00 0.00 81 1000.8
20260505092513 58 217 6.1 12.2 0.00 0.00 0.00 81 1000.8
20260505092013 58 232 5.2 12.2 0.00 0.00 0.00 80 1000.7
20260505091530 58 211 6.1 12.2 0.00 0.00 0.00 80 1000.8
20260505091019 58 217 3.5 10.4 0.00 0.00 0.00 79 1000.5
20260505090515 59 237 4.3 10.4 0.00 0.00 0.00 78 1000.6
20260505090031 59 211 5.2 12.2 0.00 0.00 0.00 77 1000.5
20260505085516 59 218 3.5 12.2 0.00 0.00 0.00 77 1000.7
20260505085014 59 226 4.3 11.3 0.00 0.00 0.00 76 1000.5
20260505084531 59 212 4.3 11.3 0.00 0.00 0.00 75 1000.4
20260505084014 60 219 3.5 13.0 0.00 0.00 0.00 74 1000.3
20260505083515 60 236 4.3 13.9 0.00 0.00 0.00 74 1000.1
20260505083033 60 213 5.2 13.9 0.00 0.00 0.00 73 1000.1
20260505082513 60 233 5.2 13.0 0.00 0.00 0.00 73 1000.1
20260505082015 60 226 6.1 12.2 0.00 0.00 0.00 73 1000.0
20260505081536 60 227 4.3 12.2 0.00 0.00 0.00 73 1000.0
20260505081016 60 251 4.3 13.9 0.00 0.00 0.00 73 1000.1
20260505080515 60 233 4.3 13.9 0.00 0.00 0.00 72 1000.1
20260505080032 60 236 4.3 12.2 0.00 0.00 0.00 72 1000.0
20260505075515 60 219 5.2 13.0 0.00 0.00 0.00 72 1000.0
20260505075017 60 243 3.5 13.0 0.00 0.00 0.00 72 999.8
20260505074530 60 195 5.2 12.2 0.00 0.00 0.00 72 999.8
20260505074014 60 191 4.3 9.6 0.00 0.00 0.00 72 999.4
20260505073514 60 213 2.6 9.6 0.00 0.00 0.00 73 999.4